Flag Weather past 2 weeks in Madrid, Spain

Now
53 °F

Passing clouds.


Feels Like: 53 °F
Forecast: 45 / 62 °F
Wind: 1 mph from Northeast

Location: Madrid / Barajas

Current Time: Nov 24, 2014 at 11:53:55 PM

Latest Report: Nov 24, 2014 at 11:00 PM


Visibility: 13 mi

Pressure: 30.07 "Hg

Humidity: 89%

Dew point: 50 °F

Location of MadridLocation

Historic Weather in Madrid — Graph

°F

Madrid temperature yesterday

Maximum temperature yesterday: 62 °F (at 3:00 PM)
Minimum temperature yesterday: 54 °F (at 4:00 AM)
Average temperature yesterday: 58 °F

Past Weeks' High & Low Weather Summary

 TemperatureHumidityPressure
High70 °F (Nov 20, 4:00 PM)97% (Nov 11, 9:00 AM)30.15 "Hg (Nov 11, 9:00 AM)
Low32 °F (Nov 10, 8:00 AM)44% (Nov 20, 4:00 PM)29.59 "Hg (Nov 11, 2:00 PM)
Average51 °F82%29.92 "Hg
* Reported Nov 9 10:00 PM — Nov 24 10:00 PM, Madrid, Weather by CustomWeather, © 2014

Note: Actual official high and low records may vary slightly from our data, if they occured in-between our weather recording intervals... More about our weather records

Advertising

Madrid weather history for previous 24 hours

 ConditionsComfort  
Time TempWeatherWind HumidityBarometerVisibility
10:00 PM
Nov 24
55 °FPassing clouds.No wind85%30.06 "Hg12 mi
9:00 PM57 °FPassing clouds.3 mph83%30.05 "Hg12 mi
8:00 PM58 °FPassing clouds.2 mph76%30.04 "Hg12 mi
7:00 PM58 °FPassing clouds.No wind76%30.02 "Hg12 mi
6:00 PM60 °FOvercast.2 mph74%30.01 "Hg12 mi
5:00 PM62 °FPartly sunny.3 mph74%29.99 "Hg12 mi
4:00 PM65 °FOvercast.No wind57%29.98 "Hg12 mi
3:00 PM66 °FScattered clouds.5 mph56%29.97 "Hg16 mi
2:00 PM65 °FMild.3 mph62%29.98 "Hg18 mi
1:00 PM63 °FPassing clouds.3 mph62%30.01 "Hg19 mi
12:00 PM61 °FScattered clouds.2 mph66%30.03 "Hg19 mi
11:00 AM58 °FCool.No wind78%30.05 "Hg14 mi
10:00 AM53 °FScattered clouds.5 mph87%30.06 "Hg11 mi
8:00 AM49 °FFog.5 mph95%30.06 "Hg6 mi
7:00 AM50 °FPassing clouds.2 mph93%30.03 "Hg7 mi
6:00 AM51 °FPassing clouds.3 mph93%30.02 "Hg6 mi
5:00 AM53 °FPassing clouds.2 mph92%30.01 "Hg9 mi
4:00 AM53 °FPassing clouds.2 mph92%30.01 "Hg9 mi
3:00 AM53 °FPassing clouds.5 mph93%30.01 "Hg9 mi
2:00 AM53 °FPassing clouds.6 mph92%29.99 "Hg9 mi
1:00 AM54 °FPassing clouds.7 mph89%29.98 "Hg9 mi
12:00 AM55 °FPassing clouds.5 mph90%29.98 "Hg9 mi
11:00 PM
Nov 23
56 °FOvercast.3 mph87%29.98 "Hg6 mi
Weather by CustomWeather, © 2014

See weather overviewHow to use our weather pages